{"data":{"norad_id":46396,"intl_designator":"2020-064A","name":"GAOFEN-11 02","alt_names":[],"object_type":"PAYLOAD","status":"ACTIVE","operator":null,"country":"PRC","launch_date":"2020-09-07","launch_site_code":"TAISC","launch_vehicle":null,"mission":null,"orbit_class":"UNKNOWN","rcs_meters":null,"size_class":null,"mass_kg":null,"dimensions":null,"purposes":[],"wikipedia_slug":null,"has_3d_model":false,"image_url":null,"decayed_at":null,"tle_current":{"epoch":"2026-09-20T05:39:23.172768Z","epoch_age_seconds":96192,"freshness":"FRESH","line1":"1 46396U 20064A   26263.23568487  .00003862  00000+0  16272-3 0  9991","line2":"2 46396  97.5253  29.4331 0018195 324.2884  35.7135 15.23811613336005","mean_motion":15.23811613,"eccentricity":0.0018195,"inclination_deg":97.5253,"raan_deg":29.4331,"arg_perigee_deg":324.2884,"mean_anomaly_deg":35.7135,"bstar":0.00016272,"rev_number":33600,"period_min":94.499870437725,"perigee_km":481.85174879021,"apogee_km":506.8607517279,"semimajor_km":6872.4932502591,"source":"CELESTRAK","updated_at":"2026-09-20T09:00:14.756861Z"}}}